Flag for U.S.A. Weather past 2 weeks in Albuquerque, New Mexico, U.S.A.

Now
64 °F

Partly sunny.


Feels Like: 64 °F
Forecast: 62 / 76 °F
Wind: 6 mph from Northeast

Location: Albuquerque International Airport

Current Time: Aug 22, 2014 at 3:59:14 PM

Latest Report: Aug 22, 2014 at 2:52 PM


Visibility: 10 mi

Pressure: 30.00 "Hg

Humidity: 81%

Dew point: 58 °F

Location of AlbuquerqueLocation

Historic Weather in Albuquerque — Graph

°F

Albuquerque temperature yesterday

Maximum temperature yesterday: 88 °F (at 4:52 PM)
Minimum temperature yesterday: 62 °F (at 5:52 AM)
Average temperature yesterday: 76 °F

Past Weeks' High & Low Weather Summary

 TemperatureHumidityPressure
High93 °F (Aug 16, 5:52 PM)90% (Aug 14, 5:52 AM)30.26 "Hg (Aug 14, 5:52 AM)
Low59 °F (Aug 8, 5:52 AM)12% (Aug 21, 4:52 PM)29.67 "Hg (Aug 19, 3:52 PM)
Average75 °F45%29.94 "Hg
* Reported Aug 7 2:52 PM — Aug 22 2:52 PM, Albuquerque, Weather by CustomWeather, © 2014

Note: Actual official high and low records may vary slightly from our data, if they occured in-between our weather recording intervals... More about our weather records

Advertising

Albuquerque weather history for previous 24 hours

 ConditionsComfort  
Time TempWeatherWind HumidityBarometerVisibility
2:52 PM
Aug 22
64 °FPartly sunny.6 mph81%30.00 "Hg10 mi
1:52 PM63 °FLight rain. Mostly cloudy.7 mph78%30.02 "Hg10 mi
12:52 PM64 °FLight rain. Cloudy.6 mph81%30.02 "Hg10 mi
11:52 AM63 °FLight rain. Cloudy.5 mph81%30.02 "Hg10 mi
10:52 AM62 °FLight rain. Fog.6 mph86%30.03 "Hg6 mi
10:00 AM62 °FLight rain. Cloudy.No wind86%30.26 "Hg8 mi
8:52 AM62 °FLight rain. Overcast.5 mph83%30.04 "Hg8 mi
7:52 AM68 °FLight rain. Overcast.7 mph53%29.98 "Hg10 mi
6:52 AM69 °FOvercast.9 mph45%29.93 "Hg10 mi
5:52 AM70 °FPassing clouds.12 mph44%29.88 "Hg10 mi
4:52 AM71 °FPassing clouds.8 mph41%29.87 "Hg10 mi
3:52 AM71 °FOvercast.No wind42%29.87 "Hg10 mi
2:52 AM71 °FPassing clouds.7 mph44%29.85 "Hg10 mi
1:52 AM71 °FPassing clouds.6 mph42%29.85 "Hg10 mi
12:52 AM72 °FPartly cloudy.9 mph41%29.85 "Hg10 mi
11:52 PM
Aug 21
75 °FPartly cloudy.8 mph37%29.85 "Hg10 mi
10:52 PM78 °FPartly cloudy.8 mph25%29.84 "Hg10 mi
9:52 PM78 °FPartly cloudy.5 mph25%29.85 "Hg10 mi
8:52 PM78 °FPartly cloudy.6 mph25%29.85 "Hg10 mi
7:52 PM83 °FScattered clouds.6 mph19%29.81 "Hg10 mi
6:52 PM86 °FScattered clouds.14 mph16%29.81 "Hg10 mi
5:52 PM87 °FSunny.8 mph16%29.82 "Hg10 mi
4:52 PM88 °FPartly sunny.12 mph12%29.83 "Hg10 mi
3:52 PM86 °FPartly sunny.12 mph17%29.85 "Hg10 mi
Weather by CustomWeather, © 2014

See weather overviewHow to use our weather pages